Time,TemperatureF,DewpointF,PressureIn,WindDirection,WindDirectionDegrees,WindSpeedMPH,WindSpeedGustMPH,Humidity,HourlyPrecipIn,Conditions,Clouds,dailyrainin,SolarRadiationWatts/m^2,SoftwareType,DateUTC
2013-03-07 00:01:00,32.0,31.0,-100.00,NNE,27,1.0,3.0,97,0.02,,,0.09,0.000000,,2013-03-07 07:01:00,
2013-03-07 00:11:00,32.0,31.0,-100.00,NNE,27,1.0,3.0,97,0.02,,,0.09,0.000000,,2013-03-07 07:11:00,
2013-03-07 00:32:00,32.0,32.0,-100.00,West,281,0.0,2.0,98,0.02,,,0.11,0.000000,,2013-03-07 07:32:00,
2013-03-07 00:43:00,32.0,32.0,-100.00,West,281,0.0,2.0,98,0.02,,,0.11,0.000000,,2013-03-07 07:43:00,
2013-03-07 00:52:00,32.0,32.0,-100.00,West,281,0.0,2.0,98,0.02,,,0.11,0.000000,,2013-03-07 07:52:00,
2013-03-07 01:02:00,32.0,32.0,-100.00,West,281,0.0,2.0,98,0.02,,,0.11,0.000000,,2013-03-07 08:02:00,
2013-03-07 01:11:00,32.0,32.0,-100.00,West,281,0.0,2.0,98,0.02,,,0.11,0.000000,,2013-03-07 08:11:00,
2013-03-07 01:34:00,31.0,30.0,-100.00,WSW,242,1.0,2.0,97,0.03,,,0.14,0.000000,,2013-03-07 08:34:00,
2013-03-07 01:44:00,31.0,30.0,-100.00,WSW,242,1.0,2.0,97,0.03,,,0.14,0.000000,,2013-03-07 08:44:00,
2013-03-07 01:53:00,31.0,30.0,-100.00,WSW,242,1.0,2.0,97,0.03,,,0.14,0.000000,,2013-03-07 08:53:00,
2013-03-07 02:02:00,31.0,30.0,-100.00,WSW,242,1.0,2.0,97,0.03,,,0.14,0.000000,,2013-03-07 09:02:00,
2013-03-07 02:11:00,31.0,30.0,-100.00,WSW,242,1.0,2.0,97,0.03,,,0.14,0.000000,,2013-03-07 09:11:00,
2013-03-07 02:43:00,31.0,31.0,-100.00,North,4,0.0,2.0,98,0.05,,,0.19,0.000000,,2013-03-07 09:43:00,
2013-03-07 02:53:00,31.0,31.0,-100.00,North,4,0.0,2.0,98,0.05,,,0.19,0.000000,,2013-03-07 09:53:00,
2013-03-07 03:02:00,31.0,31.0,-100.00,North,4,0.0,2.0,98,0.05,,,0.19,0.000000,,2013-03-07 10:02:00,
2013-03-07 03:11:00,31.0,31.0,-100.00,North,4,0.0,2.0,98,0.05,,,0.19,0.000000,,2013-03-07 10:11:00,
2013-03-07 03:33:00,31.0,31.0,-100.00,North,3,2.0,3.0,98,0.05,,,0.24,0.000000,,2013-03-07 10:33:00,
2013-03-07 03:43:00,31.0,31.0,-100.00,North,3,2.0,3.0,98,0.05,,,0.24,0.000000,,2013-03-07 10:43:00,
2013-03-07 03:53:00,31.0,31.0,-100.00,North,3,2.0,3.0,98,0.05,,,0.24,0.000000,,2013-03-07 10:53:00,
2013-03-07 04:02:00,31.0,31.0,-100.00,North,3,2.0,3.0,98,0.05,,,0.24,0.000000,,2013-03-07 11:02:00,
2013-03-07 04:11:00,31.0,31.0,-100.00,North,3,2.0,3.0,98,0.05,,,0.24,0.000000,,2013-03-07 11:11:00,
2013-03-07 04:34:00,30.0,29.0,-100.00,North,3,0.0,2.0,98,0.02,,,0.26,0.000000,,2013-03-07 11:34:00,
2013-03-07 04:43:00,30.0,29.0,-100.00,North,3,0.0,2.0,98,0.02,,,0.26,0.000000,,2013-03-07 11:43:00,
2013-03-07 04:53:00,30.0,29.0,-100.00,North,3,0.0,2.0,98,0.02,,,0.26,0.000000,,2013-03-07 11:53:00,
2013-03-07 05:02:00,30.0,29.0,-100.00,North,3,0.0,2.0,98,0.02,,,0.26,0.000000,,2013-03-07 12:02:00,
2013-03-07 05:11:00,30.0,29.0,-100.00,North,3,0.0,2.0,98,0.02,,,0.26,0.000000,,2013-03-07 12:11:00,
2013-03-07 05:34:00,30.0,29.0,-100.00,North,3,0.0,3.0,98,0.00,,,0.26,0.000000,,2013-03-07 12:34:00,
2013-03-07 05:43:00,30.0,29.0,-100.00,North,3,0.0,3.0,98,0.00,,,0.26,0.000000,,2013-03-07 12:43:00,
2013-03-07 05:52:00,30.0,29.0,-100.00,North,3,0.0,3.0,98,0.00,,,0.26,0.000000,,2013-03-07 12:52:00,
2013-03-07 06:02:00,30.0,29.0,-100.00,North,3,0.0,3.0,98,0.00,,,0.26,0.000000,,2013-03-07 13:02:00,
2013-03-07 06:11:00,30.0,29.0,-100.00,North,3,0.0,3.0,98,0.00,,,0.26,0.000000,,2013-03-07 13:11:00,
2013-03-07 07:33:00,30.0,29.0,-100.00,North,3,0.0,2.0,98,-99.99,,,0.26,0.000000,,2013-03-07 14:33:00,
2013-03-07 07:43:00,30.0,29.0,-100.00,North,3,0.0,2.0,98,-99.99,,,0.26,0.000000,,2013-03-07 14:43:00,
2013-03-07 07:53:00,30.0,29.0,-100.00,North,3,0.0,2.0,98,-99.99,,,0.26,0.000000,,2013-03-07 14:53:00,
2013-03-07 08:02:00,30.0,29.0,-100.00,North,3,0.0,2.0,98,-99.99,,,0.26,0.000000,,2013-03-07 15:02:00,
2013-03-07 08:11:00,30.0,29.0,-100.00,North,3,0.0,2.0,98,-99.99,,,0.26,0.000000,,2013-03-07 15:11:00,
2013-03-07 08:33:00,31.0,31.0,-100.00,North,1,0.0,3.0,98,0.00,,,0.26,2.000000,,2013-03-07 15:33:00,
2013-03-07 08:43:00,31.0,31.0,-100.00,North,1,0.0,3.0,98,0.00,,,0.26,2.000000,,2013-03-07 15:43:00,
2013-03-07 08:53:00,31.0,31.0,-100.00,North,1,0.0,3.0,98,0.00,,,0.26,2.000000,,2013-03-07 15:53:00,
2013-03-07 09:01:00,31.0,31.0,-100.00,North,1,0.0,3.0,98,0.00,,,0.26,2.000000,,2013-03-07 16:01:00,
2013-03-07 09:11:00,31.0,31.0,-100.00,North,1,0.0,3.0,98,0.00,,,0.26,2.000000,,2013-03-07 16:11:00,
2013-03-07 09:43:00,33.0,32.0,-100.00,South,190,1.0,3.0,97,0.00,,,0.26,9.000000,,2013-03-07 16:43:00,
2013-03-07 09:53:00,33.0,32.0,-100.00,South,190,1.0,3.0,97,0.00,,,0.26,9.000000,,2013-03-07 16:53:00,
2013-03-07 10:01:00,33.0,32.0,-100.00,South,190,1.0,3.0,97,0.00,,,0.26,9.000000,,2013-03-07 17:01:00,
2013-03-07 10:11:00,33.0,32.0,-100.00,South,190,1.0,3.0,97,0.00,,,0.26,9.000000,,2013-03-07 17:11:00,
2013-03-07 10:44:00,37.0,31.0,-100.00,WSW,246,6.0,11.0,78,0.00,,,0.26,30.000000,,2013-03-07 17:44:00,
2013-03-07 10:54:00,37.0,31.0,-100.00,WSW,246,6.0,11.0,78,0.00,,,0.26,30.000000,,2013-03-07 17:54:00,
2013-03-07 11:02:00,37.0,31.0,-100.00,WSW,246,6.0,11.0,78,0.00,,,0.26,30.000000,,2013-03-07 18:02:00,
2013-03-07 11:11:00,37.0,31.0,-100.00,WSW,246,6.0,11.0,78,0.00,,,0.26,30.000000,,2013-03-07 18:11:00,
2013-03-07 11:32:00,39.0,31.0,-100.00,WSW,252,5.0,12.0,72,0.00,,,0.26,62.000000,,2013-03-07 18:32:00,
2013-03-07 11:42:00,39.0,31.0,-100.00,WSW,252,5.0,12.0,72,0.00,,,0.26,62.000000,,2013-03-07 18:42:00,
2013-03-07 11:52:00,39.0,31.0,-100.00,WSW,252,5.0,12.0,72,0.00,,,0.26,62.000000,,2013-03-07 18:52:00,
2013-03-07 12:02:00,39.0,31.0,-100.00,WSW,252,5.0,12.0,72,0.00,,,0.26,62.000000,,2013-03-07 19:02:00,
2013-03-07 12:11:00,39.0,31.0,-100.00,WSW,252,5.0,12.0,72,0.00,,,0.26,62.000000,,2013-03-07 19:11:00,
2013-03-07 12:12:00,41.0,31.0,-100.00,SSW,213,4.0,10.0,68,0.00,,,0.26,118.000000,,2013-03-07 19:12:00,
2013-03-07 12:44:00,41.0,31.0,-100.00,SSW,213,4.0,10.0,68,0.00,,,0.26,118.000000,,2013-03-07 19:44:00,
2013-03-07 12:52:00,41.0,31.0,-100.00,SSW,213,4.0,10.0,68,0.00,,,0.26,118.000000,,2013-03-07 19:52:00,
2013-03-07 13:01:00,41.0,31.0,-100.00,SSW,213,4.0,10.0,68,0.00,,,0.26,118.000000,,2013-03-07 20:01:00,
2013-03-07 13:43:00,41.0,29.0,-100.00,SW,217,5.0,11.0,61,0.00,,,0.22,271.000000,,2013-03-07 20:43:00,
2013-03-07 13:53:00,41.0,29.0,-100.00,SW,217,5.0,11.0,61,0.00,,,0.22,271.000000,,2013-03-07 20:53:00,
2013-03-07 14:02:00,41.0,29.0,-100.00,SW,217,5.0,11.0,61,0.00,,,0.22,271.000000,,2013-03-07 21:02:00,
2013-03-07 14:11:00,41.0,29.0,-100.00,SW,217,5.0,11.0,61,0.00,,,0.22,271.000000,,2013-03-07 21:11:00,
2013-03-07 14:43:00,39.0,29.0,-100.00,West,264,8.0,15.0,68,0.00,,,0.20,233.000000,,2013-03-07 21:43:00,
2013-03-07 14:52:00,39.0,29.0,-100.00,West,264,8.0,15.0,68,0.00,,,0.20,233.000000,,2013-03-07 21:52:00,
2013-03-07 15:01:00,39.0,29.0,-100.00,West,264,8.0,15.0,68,0.00,,,0.20,233.000000,,2013-03-07 22:01:00,
2013-03-07 15:11:00,39.0,29.0,-100.00,West,264,8.0,15.0,68,0.00,,,0.20,233.000000,,2013-03-07 22:11:00,
2013-03-07 15:12:00,42.0,32.0,-100.00,SSW,194,2.0,12.0,68,0.00,,,0.20,233.000000,,2013-03-07 22:12:00,
2013-03-07 15:33:00,42.0,32.0,-100.00,SSW,194,2.0,12.0,68,0.00,,,0.20,233.000000,,2013-03-07 22:33:00,
2013-03-07 15:43:00,42.0,32.0,-100.00,SSW,194,2.0,12.0,68,0.00,,,0.20,233.000000,,2013-03-07 22:43:00,
2013-03-07 15:54:00,42.0,32.0,-100.00,SSW,194,2.0,12.0,68,0.00,,,0.20,233.000000,,2013-03-07 22:54:00,
2013-03-07 16:02:00,42.0,32.0,-100.00,SSW,194,2.0,12.0,68,0.00,,,0.20,233.000000,,2013-03-07 23:02:00,
2013-03-07 16:34:00,45.0,29.0,-100.00,WSW,241,5.0,11.0,53,0.00,,,0.20,274.000000,,2013-03-07 23:34:00,
2013-03-07 16:44:00,45.0,29.0,-100.00,WSW,241,5.0,11.0,53,0.00,,,0.20,274.000000,,2013-03-07 23:44:00,
2013-03-07 16:53:00,45.0,29.0,-100.00,WSW,241,5.0,11.0,53,0.00,,,0.20,274.000000,,2013-03-07 23:53:00,
2013-03-07 17:02:00,45.0,29.0,-100.00,WSW,241,5.0,11.0,53,0.00,,,0.20,274.000000,,2013-03-08 00:02:00,
2013-03-07 17:11:00,45.0,29.0,-100.00,WSW,241,5.0,11.0,53,0.00,,,0.20,274.000000,,2013-03-08 00:11:00,
2013-03-07 17:34:00,39.0,29.0,-100.00,WNW,288,3.0,11.0,68,0.00,,,0.20,150.000000,,2013-03-08 00:34:00,
2013-03-07 17:44:00,39.0,29.0,-100.00,WNW,288,3.0,11.0,68,0.00,,,0.20,150.000000,,2013-03-08 00:44:00,
2013-03-07 17:53:00,39.0,29.0,-100.00,WNW,288,3.0,11.0,68,0.00,,,0.20,150.000000,,2013-03-08 00:53:00,
2013-03-07 18:01:00,39.0,29.0,-100.00,WNW,288,3.0,11.0,68,0.00,,,0.20,150.000000,,2013-03-08 01:01:00,
2013-03-07 18:11:00,39.0,29.0,-100.00,WNW,288,3.0,11.0,68,0.00,,,0.20,150.000000,,2013-03-08 01:11:00,
2013-03-07 18:33:00,35.0,33.0,-100.00,NE,52,0.0,7.0,91,0.00,,,0.20,35.000000,,2013-03-08 01:33:00,
2013-03-07 18:42:00,35.0,33.0,-100.00,NE,52,0.0,7.0,91,0.00,,,0.20,35.000000,,2013-03-08 01:42:00,
2013-03-07 18:52:00,35.0,33.0,-100.00,NE,52,0.0,7.0,91,0.00,,,0.20,35.000000,,2013-03-08 01:52:00,
2013-03-07 19:01:00,35.0,33.0,-100.00,NE,52,0.0,7.0,91,0.00,,,0.20,35.000000,,2013-03-08 02:01:00,
2013-03-07 19:11:00,35.0,33.0,-100.00,NE,52,0.0,7.0,91,0.00,,,0.20,35.000000,,2013-03-08 02:11:00,
2013-03-07 19:32:00,33.0,32.0,-100.00,NE,49,1.0,3.0,95,0.00,,,0.20,3.000000,,2013-03-08 02:32:00,
2013-03-07 19:42:00,33.0,32.0,-100.00,NE,49,1.0,3.0,95,0.00,,,0.20,3.000000,,2013-03-08 02:42:00,
2013-03-07 19:52:00,33.0,32.0,-100.00,NE,49,1.0,3.0,95,0.00,,,0.20,3.000000,,2013-03-08 02:52:00,
2013-03-07 20:01:00,33.0,32.0,-100.00,NE,49,1.0,3.0,95,0.00,,,0.20,3.000000,,2013-03-08 03:01:00,
2013-03-07 20:11:00,33.0,32.0,-100.00,NE,49,1.0,3.0,95,0.00,,,0.20,3.000000,,2013-03-08 03:11:00,
2013-03-07 20:33:00,33.0,32.0,-100.00,ESE,108,0.0,3.0,95,0.00,,,0.20,0.000000,,2013-03-08 03:33:00,
2013-03-07 20:43:00,33.0,32.0,-100.00,ESE,108,0.0,3.0,95,0.00,,,0.20,0.000000,,2013-03-08 03:43:00,
2013-03-07 20:52:00,33.0,32.0,-100.00,ESE,108,0.0,3.0,95,0.00,,,0.20,0.000000,,2013-03-08 03:52:00,
2013-03-07 21:01:00,33.0,32.0,-100.00,ESE,108,0.0,3.0,95,0.00,,,0.20,0.000000,,2013-03-08 04:01:00,
2013-03-07 21:11:00,33.0,32.0,-100.00,ESE,108,0.0,3.0,95,0.00,,,0.20,0.000000,,2013-03-08 04:11:00,
2013-03-07 21:12:00,32.0,31.0,-100.00,East,92,0.0,2.0,96,0.00,,,0.19,0.000000,,2013-03-08 04:12:00,
2013-03-07 21:32:00,32.0,31.0,-100.00,East,92,0.0,2.0,96,0.00,,,0.19,0.000000,,2013-03-08 04:32:00,
2013-03-07 21:42:00,32.0,31.0,-100.00,East,92,0.0,2.0,96,0.00,,,0.19,0.000000,,2013-03-08 04:42:00,
2013-03-07 21:52:00,32.0,31.0,-100.00,East,92,0.0,2.0,96,0.00,,,0.19,0.000000,,2013-03-08 04:52:00,
2013-03-07 22:01:00,32.0,31.0,-100.00,East,92,0.0,2.0,96,0.00,,,0.19,0.000000,,2013-03-08 05:01:00,
2013-03-07 22:33:00,32.0,31.0,-100.00,NE,49,2.0,2.0,96,0.00,,,-99.99,0.000000,,2013-03-08 05:33:00,
2013-03-07 22:42:00,32.0,31.0,-100.00,NE,49,2.0,2.0,96,0.00,,,-99.99,0.000000,,2013-03-08 05:42:00,
2013-03-07 22:52:00,32.0,31.0,-100.00,NE,49,2.0,2.0,96,0.00,,,-99.99,0.000000,,2013-03-08 05:52:00,
2013-03-07 23:01:00,32.0,31.0,-100.00,NE,49,2.0,2.0,96,0.00,,,-99.99,0.000000,,2013-03-08 06:01:00,
2013-03-07 23:11:00,32.0,31.0,-100.00,NE,49,2.0,2.0,96,0.00,,,-99.99,0.000000,,2013-03-08 06:11:00,
2013-03-07 23:32:00,31.0,30.0,-100.00,SE,135,0.0,2.0,97,0.00,,,0.17,0.000000,,2013-03-08 06:32:00,
2013-03-07 23:42:00,31.0,30.0,-100.00,SE,135,0.0,2.0,97,0.00,,,0.17,0.000000,,2013-03-08 06:42:00,
2013-03-07 23:52:00,31.0,30.0,-100.00,SE,135,0.0,2.0,97,0.00,,,0.17,0.000000,,2013-03-08 06:52:00,